Weather History for Elmira, NY

Change the Weather History Date:

Thursday, October 20, 2011

  Actual Average Record
Temperature  
Mean Temperature 54 °F -  
Max Temperature 62 °F 55 °F 83 °F (1947)
Min Temperature 46 °F 33 °F 15 °F (1974)
Degree Days  
Heating Degree Days 11    
Growing Degree Days 4 (Base 50)    
Moisture  
Dew Point 48 °F    
Average Humidity 80    
Maximum Humidity 94    
Minimum Humidity 61    
Precipitation  
Precipitation 0.41 in - - ()
Sea Level Pressure  
Sea Level Pressure 29.33 in    
Wind  
Wind Speed 10 mph (SW)    
Max Wind Speed 21 mph    
Max Gust Speed 29 mph    
Visibility 8 miles    
Events Rain    
Averages and records for this station are not official NWS values.
T = Trace of Precipitation, MM = Missing Value Source: NWS Daily Summary

Daily Weather History Graph

Daily Weather History Graph

Search for Another Location

Airport:

Trip Planner

Search our weather history database for the weather conditions in past years. The results will help you decide how hot, cold, wet, or windy it might be!

Date:

Astronomy

Oct. 20, 2011 Rise Set
Actual Time 7:25 AM EDT 6:18 PM EDT
Civil Twilight 6:57 AM EDT 6:46 PM EDT
Nautical Twilight 6:24 AM EDT 7:19 PM EDT
Astronomical Twilight 5:52 AM EDT 7:51 PM EDT
Moon 12:00 AM EDT (10/20) 2:33 PM EDT (10/20)
Length of Visible Light 11h 49m
Length of Day
10h 52m
Last Quarter, 44% of the Moon is Illuminated
Oct 20
Last Quarter
Oct 26
New
Nov 2
First Quarter
Nov 10
Full
Nov 18
Last Quarter

Hourly Weather History & Observations

Time (EDT) Temp. Dew Point Humidity Pressure Visibility Wind Dir Wind Speed Gust Speed Precip Events Conditions
12:06 AM 57.2 °F 55.4 °F 94% 29.30 in 4.0 mi NE 9.2 mph - 0.02 in Rain Light Rain
12:53 AM 57.0 °F 55.0 °F 93% 29.28 in 4.0 mi NNE 6.9 mph - 0.05 in Rain Light Rain
1:11 AM 57.2 °F 55.4 °F 94% 29.27 in 5.0 mi NNE 4.6 mph - 0.01 in Rain Light Rain
1:20 AM 57.2 °F 55.4 °F 94% 29.27 in 4.0 mi North 4.6 mph - 0.02 in Rain Light Rain
1:53 AM 57.0 °F 55.0 °F 93% 29.24 in 3.0 mi NE 8.1 mph - 0.03 in Rain Light Rain
2:00 AM 57.2 °F 55.4 °F 94% 29.24 in 4.0 mi NE 9.2 mph - 0.00 in Rain Light Rain
2:53 AM 60.1 °F 57.0 °F 90% 29.20 in 10.0 mi ESE 15.0 mph - 0.01 in   Overcast
3:53 AM 61.0 °F 57.0 °F 87% 29.15 in 8.0 mi East 9.2 mph 20.7 mph 0.02 in Rain Light Rain
4:41 AM 62.6 °F 57.2 °F 82% 29.16 in 2.5 mi South 4.6 mph 17.3 mph 0.09 in Rain Heavy Rain
4:51 AM 60.8 °F 59.0 °F 94% 29.18 in 1.2 mi SW 11.5 mph 23.0 mph 0.25 in Rain Heavy Rain
4:53 AM 61.0 °F 59.0 °F 93% 29.17 in 1.8 mi SW 13.8 mph 23.0 mph 0.26 in Rain Heavy Rain
4:57 AM 62.6 °F 57.2 °F 82% 29.19 in 4.0 mi SW 17.3 mph 23.0 mph 0.00 in Rain Light Rain
5:16 AM 59.0 °F 55.4 °F 88% 29.21 in 10.0 mi WSW 16.1 mph 23.0 mph 0.03 in Rain Light Rain
5:29 AM 57.2 °F 53.6 °F 88% 29.22 in 10.0 mi WSW 13.8 mph - 0.03 in   Overcast
5:53 AM 55.0 °F 51.1 °F 86% 29.22 in 10.0 mi West 5.8 mph - 0.03 in   Scattered Clouds
6:53 AM 53.1 °F 48.9 °F 86% 29.25 in 10.0 mi WSW 6.9 mph - N/A   Scattered Clouds
7:04 AM 53.6 °F 50.0 °F 88% 29.25 in 10.0 mi WSW 5.8 mph - N/A   Mostly Cloudy
7:53 AM 54.0 °F 50.0 °F 86% 29.26 in 10.0 mi SW 5.8 mph - N/A   Overcast
8:34 AM 55.4 °F 50.0 °F 82% 29.29 in 10.0 mi SSW 6.9 mph - N/A   Overcast
8:53 AM 55.0 °F 50.0 °F 83% 29.30 in 10.0 mi SW 10.4 mph - N/A   Overcast
9:53 AM 53.1 °F 46.0 °F 77% 29.32 in 10.0 mi WSW 10.4 mph - 0.00 in   Overcast
10:53 AM 54.0 °F 44.1 °F 69% 29.34 in 10.0 mi SW 17.3 mph 23.0 mph N/A   Mostly Cloudy
11:53 AM 53.1 °F 39.9 °F 61% 29.36 in 10.0 mi WSW 20.7 mph 27.6 mph N/A   Overcast
12:53 PM 52.0 °F 39.9 °F 63% 29.37 in 10.0 mi SW 10.4 mph - N/A   Overcast
1:53 PM 53.1 °F 41.0 °F 64% 29.36 in 10.0 mi SW 15.0 mph - N/A   Overcast
2:53 PM 51.1 °F 43.0 °F 74% 29.39 in 10.0 mi SSW 12.7 mph 25.3 mph 0.01 in Rain Light Rain
3:53 PM 52.0 °F 42.1 °F 69% 29.41 in 10.0 mi WSW 13.8 mph 20.7 mph 0.00 in   Overcast
4:53 PM 50.0 °F 39.9 °F 68% 29.44 in 10.0 mi SW 18.4 mph 26.5 mph 0.00 in Rain Light Rain
5:53 PM 48.9 °F 39.0 °F 69% 29.47 in 10.0 mi SW 18.4 mph 28.8 mph N/A   Overcast
6:53 PM 48.9 °F 39.0 °F 69% 29.50 in 10.0 mi SSW 17.3 mph 23.0 mph N/A   Overcast
7:53 PM 48.2 °F 37.4 °F 66% 29.52 in 10.0 mi SW 15.0 mph 21.9 mph N/A   Overcast
8:53 PM 48.0 °F 37.9 °F 68% 29.54 in 10.0 mi SW 10.4 mph 19.6 mph N/A   Overcast
9:53 PM 48.0 °F 37.9 °F 68% 29.57 in 10.0 mi SW 16.1 mph 20.7 mph N/A   Overcast
10:53 PM 46.9 °F 37.9 °F 71% 29.58 in 10.0 mi SW 12.7 mph - N/A   Overcast
11:53 PM 46.9 °F 37.9 °F 71% 29.59 in 10.0 mi SW 9.2 mph 20.7 mph N/A   Overcast